• In Hungary
  • List of Countries
  • For 7 days
  • Water Temperature
  • Satellite Maps
  • Weather Map
  • News
  • Weather Widgets
  • user-avatar
    Login

    Hourly Weather Rychnowo

    Today, 22 October, Monday

    Time Temperature Precipitation Wind Pressure Humidity
    00:00 +5°C° 0 mm 2 mps 756 mmHg 88%
    01:00 +4°C° 0 mm 3 mps 756 mmHg 89%
    02:00 +4°C° 0 mm 3 mps 755 mmHg 91%
    03:00 +4°C° 0 mm 3 mps 755 mmHg 92%
    04:00 +4°C° 0 mm 3 mps 755 mmHg 93%
    05:00 +4°C° 0 mm 3 mps 754 mmHg 93%
    06:00 +4°C° 0 mm 3 mps 754 mmHg 93%
    07:00 +4°C° 0 mm 4 mps 754 mmHg 94%
    08:00 +5°C° 0 mm 4 mps 754 mmHg 87%
    09:00 +7°C° 0 mm 4 mps 753 mmHg 80%
    10:00 +8°C° 0 mm 5 mps 753 mmHg 74%
    11:00 +9°C° 0.1 mm 5 mps 753 mmHg 73%
    12:00 +9°C° 0.1 mm 5 mps 752 mmHg 72%
    13:00 +10°C° 0.1 mm 5 mps 752 mmHg 72%
    14:00 +9°C° 0.6 mm 5 mps 752 mmHg 77%
    15:00 +9°C° 0.6 mm 5 mps 752 mmHg 82%
    16:00 +8°C° 0.6 mm 5 mps 751 mmHg 87%
    17:00 +8°C° 0.1 mm 4 mps 751 mmHg 86%
    18:00 +7°C° 0.1 mm 4 mps 752 mmHg 85%
    19:00 +6°C° 0.1 mm 4 mps 752 mmHg 84%
    20:00 +5°C° 0 mm 4 mps 752 mmHg 84%
    21:00 +5°C° 0 mm 3 mps 752 mmHg 84%
    22:00 +4°C° 0 mm 3 mps 752 mmHg 84%
    23:00 +4°C° 0 mm 3 mps 752 mmHg 83%

    Tomorrow, 23 October, Tuesday

    Time Temperature Precipitation Wind Pressure Humidity
    00:00 +4°C° 0 mm 3 mps 752 mmHg 83%
    01:00 +4°C° 0 mm 4 mps 752 mmHg 82%
    02:00 +4°C° 0 mm 4 mps 751 mmHg 84%
    03:00 +4°C° 0 mm 4 mps 750 mmHg 85%
    04:00 +4°C° 0 mm 4 mps 750 mmHg 86%
    05:00 +3°C° 0.1 mm 5 mps 749 mmHg 85%
    06:00 +3°C° 0.1 mm 5 mps 748 mmHg 84%
    07:00 +3°C° 0.1 mm 6 mps 748 mmHg 83%
    08:00 +4°C° 0.2 mm 7 mps 746 mmHg 81%
    09:00 +4°C° 0.2 mm 8 mps 745 mmHg 78%
    10:00 +5°C° 0.2 mm 9 mps 744 mmHg 75%
    11:00 +5°C° 1.2 mm 9 mps 742 mmHg 77%
    12:00 +3°C° 1.2 mm 10 mps 740 mmHg 79%
    13:00 +3°C° 1.2 mm 10 mps 739 mmHg 81%
    14:00 +5°C° 1.6 mm 10 mps 737 mmHg 83%
    15:00 +6°C° 1.6 mm 10 mps 735 mmHg 84%
    16:00 +7°C° 1.6 mm 10 mps 734 mmHg 86%
    17:00 +7°C° 0.8 mm 9 mps 733 mmHg 84%
    18:00 +7°C° 0.8 mm 9 mps 733 mmHg 82%
    19:00 +7°C° 0.8 mm 8 mps 732 mmHg 79%
    20:00 +7°C° 0.1 mm 8 mps 732 mmHg 78%
    21:00 +6°C° 0.1 mm 8 mps 732 mmHg 76%
    22:00 +6°C° 0.1 mm 8 mps 732 mmHg 74%
    23:00 +6°C° 0.1 mm 8 mps 731 mmHg 73%

    Day after tomorrow, 24 October, Wednesday

    Time Temperature Precipitation Wind Pressure Humidity
    00:00 +5°C° 0.1 mm 8 mps 731 mmHg 72%
    01:00 +5°C° 0.1 mm 8 mps 730 mmHg 71%
    02:00 +5°C° 0.3 mm 8 mps 730 mmHg 68%
    03:00 +3°C° 0.3 mm 9 mps 731 mmHg 64%
    04:00 +3°C° 0.3 mm 9 mps 731 mmHg 60%
    05:00 +2°C° 0 mm 9 mps 732 mmHg 61%
    06:00 +2°C° 0 mm 10 mps 732 mmHg 62%
    07:00 +1°C° 0 mm 10 mps 733 mmHg 63%
    08:00 +2°C° 0.1 mm 10 mps 734 mmHg 61%
    09:00 +3°C° 0.1 mm 11 mps 734 mmHg 60%
    10:00 +3°C° 0.1 mm 11 mps 735 mmHg 59%
    11:00 +4°C° 0.1 mm 11 mps 736 mmHg 58%
    12:00 +4°C° 0.1 mm 12 mps 736 mmHg 56%
    13:00 +4°C° 0.1 mm 12 mps 737 mmHg 55%
    14:00 +4°C° 0.1 mm 12 mps 737 mmHg 56%
    15:00 +4°C° 0.1 mm 11 mps 738 mmHg 58%
    16:00 +3°C° 0.1 mm 11 mps 738 mmHg 59%
    17:00 +3°C° 0.1 mm 10 mps 739 mmHg 61%
    18:00 +3°C° 0.1 mm 10 mps 740 mmHg 62%
    19:00 +3°C° 0.1 mm 9 mps 741 mmHg 64%
    20:00 +3°C° 0 mm 9 mps 741 mmHg 65%
    21:00 +4°C° 0 mm 8 mps 742 mmHg 66%
    22:00 +4°C° 0 mm 8 mps 743 mmHg 67%
    23:00 +4°C° 0 mm 7 mps 743 mmHg 68%

    25 October, Thursday

    Time Temperature Precipitation Wind Pressure Humidity
    00:00 +3°C° 0 mm 6 mps 743 mmHg 69%
    01:00 +3°C° 0 mm 6 mps 744 mmHg 71%
    02:00 +3°C° 0 mm 6 mps 744 mmHg 72%
    03:00 +2°C° 0 mm 5 mps 744 mmHg 74%
    04:00 +2°C° 0 mm 5 mps 744 mmHg 75%
    05:00 +2°C° 0 mm 5 mps 744 mmHg 75%
    06:00 +2°C° 0 mm 5 mps 744 mmHg 75%
    07:00 +1°C° 0 mm 5 mps 744 mmHg 75%
    08:00 +3°C° 0 mm 5 mps 744 mmHg 73%
    09:00 +5°C° 0 mm 5 mps 744 mmHg 71%
    10:00 +5°C° 0 mm 6 mps 744 mmHg 68%
    11:00 +5°C° 0.3 mm 6 mps 743 mmHg 75%
    12:00 +5°C° 0.3 mm 7 mps 742 mmHg 81%
    13:00 +5°C° 0.3 mm 7 mps 742 mmHg 87%
    14:00 +6°C° 0.4 mm 7 mps 741 mmHg 87%
    15:00 +8°C° 0.4 mm 7 mps 741 mmHg 86%
    16:00 +8°C° 0.4 mm 7 mps 740 mmHg 86%
    17:00 +9°C° 0.2 mm 7 mps 740 mmHg 85%
    18:00 +9°C° 0.2 mm 7 mps 740 mmHg 84%
    19:00 +9°C° 0.2 mm 7 mps 740 mmHg 84%
    20:00 +9°C° 0.1 mm 7 mps 740 mmHg 84%
    21:00 +8°C° 0.1 mm 6 mps 740 mmHg 84%
    22:00 +8°C° 0.1 mm 5 mps 740 mmHg 85%
    23:00 +8°C° 0.1 mm 5 mps 740 mmHg 85%

    26 October, Friday

    Time Temperature Precipitation Wind Pressure Humidity
    00:00 +8°C° 0.1 mm 5 mps 740 mmHg 86%
    01:00 +8°C° 0.1 mm 5 mps 740 mmHg 87%
    02:00 +8°C° 0.1 mm 5 mps 740 mmHg 88%
    03:00 +8°C° 0.1 mm 5 mps 741 mmHg 89%
    04:00 +8°C° 0.1 mm 5 mps 741 mmHg 90%
    05:00 +8°C° 0.1 mm 5 mps 741 mmHg 91%
    06:00 +8°C° 0.1 mm 5 mps 741 mmHg 91%
    07:00 +7°C° 0.1 mm 5 mps 741 mmHg 92%
    08:00 +8°C° 0 mm 5 mps 741 mmHg 89%
    09:00 +8°C° 0 mm 5 mps 741 mmHg 86%
    10:00 +9°C° 0 mm 5 mps 741 mmHg 84%
    11:00 +9°C° 0 mm 5 mps 741 mmHg 80%
    12:00 +10°C° 0 mm 6 mps 740 mmHg 76%
    13:00 +10°C° 0 mm 6 mps 740 mmHg 72%
    14:00 +10°C° 0 mm 5 mps 740 mmHg 73%
    15:00 +9°C° 0 mm 5 mps 740 mmHg 74%
    16:00 +9°C° 0 mm 5 mps 739 mmHg 75%
    17:00 +9°C° 0 mm 5 mps 739 mmHg 77%
    18:00 +10°C° 0 mm 4 mps 739 mmHg 79%
    19:00 +8°C° 0 mm 4 mps 739 mmHg 81%
    20:00 +8°C° 0 mm 5 mps 739 mmHg 81%
    21:00 +8°C° 0 mm 5 mps 738 mmHg 81%
    22:00 +8°C° 0 mm 5 mps 738 mmHg 82%
    23:00 +8°C° 0 mm 5 mps 738 mmHg 83%

    27 October, Saturday

    Time Temperature Precipitation Wind Pressure Humidity
    00:00 +8°C° 0 mm 5 mps 738 mmHg 84%
    01:00 +8°C° 0 mm 5 mps 738 mmHg 85%
    02:00 +7°C° 0 mm 5 mps 737 mmHg 86%
    03:00 +7°C° 0 mm 4 mps 737 mmHg 88%
    04:00 +7°C° 0 mm 4 mps 737 mmHg 89%
    05:00 +6°C° 0 mm 4 mps 737 mmHg 90%
    06:00 +7°C° 0 mm 3 mps 737 mmHg 92%
    07:00 +7°C° 0 mm 3 mps 737 mmHg 93%
    08:00 +6°C° 0 mm 4 mps 738 mmHg 85%
    09:00 +7°C° 0 mm 4 mps 738 mmHg 78%
    10:00 +8°C° 0 mm 4 mps 738 mmHg 71%
    11:00 +8°C° 0.1 mm 4 mps 738 mmHg 70%
    12:00 +9°C° 0.1 mm 3 mps 737 mmHg 69%
    13:00 +9°C° 0.1 mm 3 mps 737 mmHg 68%
    14:00 +9°C° 0.4 mm 3 mps 737 mmHg 72%
    15:00 +8°C° 0.4 mm 2 mps 737 mmHg 77%
    16:00 +8°C° 0.4 mm 2 mps 736 mmHg 81%
    17:00 +7°C° 0.5 mm 2 mps 736 mmHg 82%
    18:00 +7°C° 0.5 mm 2 mps 736 mmHg 84%
    19:00 +7°C° 0.5 mm 2 mps 736 mmHg 85%
    20:00 +7°C° 0.3 mm 2 mps 736 mmHg 83%
    21:00 +6°C° 0.3 mm 2 mps 736 mmHg 82%
    22:00 +6°C° 0.3 mm 2 mps 736 mmHg 81%
    23:00 +6°C° 0.3 mm 2 mps 736 mmHg 81%
    Show more